カタログに戻る

AETHER-5

運用中通信SSO
NORAD 67376·PAYLOAD·🇨🇦 Canada

打ち上げ Jan 11, 2026 から Vandenberg Space Force Base

Loading…

次のパス (今後24時間)

TLE

最新Source: Space-Track

元期: Sep 14, 2026, 10:10 UTC

1 67376U 26004P   26257.42368855  .00000375  00000-0  49269-4 0  9993
2 67376  97.8106 254.3540 0000558 168.0670 192.0559 14.85805012 36544

AllMySatでAETHER-5をリアルタイム追跡

Download on the App Store